QPF
0.00 0.00 0.00 0.00 0.00 0.00 0.00 0.00 0.00 0.00 0.00 0.00 0.00 0.00 0.00 0.00 0.00 0.00 0.00 0.00 0.01 0.00 0.00 0.00 0.01 0.00 0.00 0.00 0.00 0.00 0.00 0.00 0.00 0.00 0.00 0.00 0.01 0.01 0.01 0.01 0.00 0.00 0.00
0.00 0.00 0.00 0.00 0.00 0.00 0.00 0.00 0.00 0.00 0.00 0.00 0.00 0.00 0.00 0.00 0.00 0.01 0.01 0.01 0.01 0.01 0.00 0.00 0.00 0.00 0.00 0.00 0.00 0.00 0.00 0.00 0.01 0.01 0.01 0.01 0.01 0.01 0.01 0.01 0.01 0.00 0.00
0.00 0.00 0.00 0.00 0.00 0.00 0.00 0.00 0.00 0.00 0.00 0.00 0.01 0.01 0.01 0.01 0.01 0.01 0.01 0.01 0.01 0.01 0.00 0.00 0.00 0.00 0.00 0.00 0.00 0.00 0.00 0.01 0.02 0.03 0.03 0.01 0.01 0.01 0.01 0.01 0.01 0.00 0.00
0.00 0.00 0.00 0.00 0.00 0.00 0.00 0.00 0.00 0.00 0.00 0.00 0.01 0.01 0.01 0.01 0.01 0.01 0.01 0.01 0.01 0.01 0.01 0.00 0.00 0.00 0.00 0.00 0.00 0.00 0.01 0.02 0.03 0.04 0.04 0.04 0.02 0.01 0.01 0.01 0.01 0.00 0.00
0.00 0.00 0.00 0.00 0.00 0.00 0.00 0.00 0.00 0.00 0.00 0.01 0.01 0.01 0.01 0.01 0.01 0.01 0.01 0.01 0.01 0.01 0.00 0.00 0.00 0.00 0.00 0.00 0.00 0.00 0.01 0.02 0.04 0.06 0.10 0.09 0.05 0.02 0.01 0.00 0.00 0.00 0.00
0.00 0.00 0.00 0.00 0.00 0.00 0.00 0.00 0.00 0.00 0.01 0.01 0.01 0.01 0.01 0.01 0.01 0.01 0.01 0.01 0.01 0.00 0.00 0.00 0.00 0.00 0.00 0.00 0.00 0.00 0.01 0.02 0.03 0.07 0.12 0.13 0.07 0.04 0.01 0.00 0.00 0.00 0.00
0.00 0.00 0.00 0.00 0.00 0.00 0.00 0.00 0.00 0.00 0.01 0.01 0.01 0.01 0.01 0.01 0.01 0.01 0.01 0.01 0.01 0.00 0.00 0.00 0.00 0.00 0.00 0.00 0.00 0.00 0.00 0.02 0.03 0.07 0.15 0.12 0.12 0.07 0.03 0.01 0.00 0.00 0.00
0.00 0.00 0.00 0.00 0.00 0.00 0.00 0.00 0.00 0.00 0.01 0.00 0.00 0.01 0.01 0.01 0.01 0.01 0.00 0.00 0.00 0.00 0.00 0.00 0.00 0.00 0.00 0.00 0.00 0.00 0.00 0.01 0.02 0.07 0.14 0.15 0.08 0.06 0.04 0.02 0.01 0.00 0.00
0.00 0.00 0.00 0.00 0.00 0.00 0.00 0.00 0.00 0.00 0.00 0.00 0.00 0.00 0.00 0.00 0.00 0.00 0.00 0.00 0.00 0.00 0.00 0.00 0.00 0.00 0.00 0.00 0.00 0.00 0.00 0.01 0.02 0.06 0.13 0.19 0.10 0.06 0.03 0.02 0.00 0.00 0.00
0.00 0.00 0.00 0.00 0.00 0.00 0.00 0.00 0.00 0.00 0.00 0.00 0.00 0.00 0.00 0.00 0.00 0.00 0.00 0.00 0.00 0.00 0.00 0.00 0.00 0.00 0.00 0.00 0.00 0.00 0.00 0.01 0.02 0.04 0.06 0.06 0.09 0.07 0.03 0.01 0.01 0.00 0.00
0.00 0.00 0.00 0.00 0.00 0.00 0.00 0.00 0.00 0.00 0.00 0.00 0.00 0.00 0.00 0.00 0.00 0.00 0.00 0.00 0.00 0.00 0.00 0.00 0.00 0.00 0.00 0.00 0.00 0.00 0.00 0.01 0.02 0.03 0.04 0.06 0.08 0.06 0.03 0.02 0.01 0.01 0.00
0.00 0.00 0.00 0.00 0.00 0.00 0.00 0.00 0.00 0.00 0.00 0.00 0.00 0.00 0.00 0.00 0.00 0.00 0.00 0.00 0.00 0.00 0.00 0.00 0.00 0.00 0.00 0.00 0.00 0.00 0.00 0.01 0.02 0.03 0.03 0.05 0.06 0.05 0.03 0.02 0.01 0.01 0.00
0.00 0.00 0.00 0.00 0.00 0.00 0.00 0.00 0.00 0.00 0.00 0.00 0.00 0.00 0.00 0.00 0.00 0.00 0.00 0.01 0.01 0.00 0.00 0.01 0.01 0.00 0.01 0.01 0.01 0.01 0.02 0.02 0.03 0.02 0.03 0.05 0.05 0.05 0.04 0.02 0.01 0.01 0.01
0.01 0.00 0.00 0.00 0.00 0.00 0.00 0.00 0.00 0.00 0.00 0.00 0.00 0.00 0.00 0.00 0.01 0.01 0.01 0.01 0.01 0.01 0.01 0.02 0.02 0.02 0.02 0.02 0.03 0.07 0.07 0.05 0.04 0.04 0.03 0.05 0.04 0.04 0.04 0.03 0.02 0.02 0.01
0.02 0.01 0.01 0.00 0.00 0.00 0.00 0.00 0.00 0.00 0.00 0.00 0.00 0.00 0.00 0.00 0.01 0.01 0.01 0.01 0.02 0.03 0.04 0.04 0.03 0.03 0.03 0.04 0.06 0.06 0.06 0.06 0.08 0.09 0.06 0.05 0.04 0.04 0.04 0.03 0.02 0.02 0.01
0.02 0.02 0.01 0.01 0.00 0.00 0.00 0.00 0.00 0.00 0.00 0.00 0.00 0.00 0.00 0.00 0.00 0.01 0.01 0.01 0.01 0.02 0.04 0.11 0.10 0.07 0.04 0.04 0.04 0.03 0.03 0.07 0.09 0.10 0.08 0.07 0.06 0.05 0.05 0.04 0.03 0.02 0.02
0.03 0.03 0.02 0.01 0.00 0.00 0.00 0.00 0.00 0.00 0.00 0.01 0.01 0.01 0.00 0.01 0.01 0.01 0.01 0.01 0.01 0.01 0.02 0.03 0.05 0.04 0.03 0.04 0.04 0.03 0.03 0.04 0.04 0.05 0.05 0.04 0.04 0.03 0.03 0.03 0.02 0.02 0.02
0.04 0.04 0.03 0.03 0.01 0.01 0.01 0.01 0.01 0.01 0.00 0.01 0.01 0.02 0.01 0.01 0.01 0.01 0.01 0.01 0.01 0.01 0.02 0.01 0.01 0.02 0.03 0.04 0.04 0.03 0.04 0.04 0.04 0.04 0.05 0.04 0.03 0.02 0.02 0.02 0.01 0.01 0.02
0.12 0.07 0.07 0.09 0.06 0.03 0.02 0.02 0.01 0.01 0.01 0.01 0.01 0.01 0.01 0.02 0.02 0.01 0.01 0.01 0.01 0.01 0.02 0.02 0.03 0.05 0.04 0.03 0.03 0.02 0.03 0.03 0.03 0.03 0.03 0.03 0.03 0.03 0.02 0.02 0.01 0.01 0.02
0.10 0.10 0.16 0.14 0.09 0.07 0.04 0.04 0.03 0.02 0.02 0.02 0.02 0.02 0.02 0.03 0.02 0.03 0.03 0.03 0.04 0.05 0.05 0.04 0.04 0.04 0.03 0.02 0.02 0.01 0.02 0.02 0.02 0.02 0.02 0.02 0.02 0.02 0.03 0.03 0.02 0.02 0.02
0.07 0.07 0.09 0.11 0.07 0.06 0.05 0.05 0.05 0.04 0.04 0.05 0.04 0.04 0.04 0.05 0.05 0.06 0.06 0.07 0.06 0.06 0.06 0.05 0.04 0.03 0.02 0.02 0.01 0.01 0.01 0.01 0.01 0.01 0.01 0.02 0.02 0.01 0.01 0.01 0.01 0.01 0.01
0.10 0.12 0.08 0.08 0.08 0.07 0.08 0.09 0.09 0.09 0.08 0.08 0.07 0.07 0.08 0.09 0.10 0.10 0.09 0.08 0.07 0.06 0.05 0.03 0.02 0.02 0.03 0.02 0.01 0.01 0.01 0.01 0.01 0.00 0.00 0.01 0.01 0.01 0.00 0.00 0.00 0.00 0.00
0.14 0.14 0.13 0.15 0.16 0.17 0.17 0.18 0.18 0.15 0.14 0.15 0.15 0.16 0.17 0.16 0.15 0.14 0.11 0.09 0.07 0.05 0.05 0.05 0.03 0.02 0.02 0.02 0.01 0.01 0.01 0.01 0.01 0.00 0.00 0.00 0.00 0.00 0.00 0.00 0.00 0.00 0.00
0.20 0.20 0.22 0.27 0.34 0.38 0.38 0.36 0.32 0.27 0.25 0.24 0.24 0.23 0.21 0.18 0.16 0.16 0.14 0.11 0.10 0.09 0.07 0.05 0.03 0.02 0.02 0.02 0.01 0.01 0.01 0.01 0.00 0.00 0.00 0.00 0.00 0.00 0.00 0.00 0.00 0.00 0.00
0.19 0.29 0.35 0.37 0.42 0.45 0.45 0.47 0.45 0.41 0.38 0.38 0.34 0.26 0.22 0.21 0.21 0.18 0.14 0.11 0.09 0.07 0.05 0.03 0.03 0.02 0.02 0.01 0.01 0.01 0.01 0.01 0.01 0.00 0.00 0.00 0.00 0.00 0.00 0.00 0.00 0.00 0.00
0.12 0.21 0.30 0.34 0.46 0.53 0.52 0.50 0.51 0.50 0.47 0.43 0.35 0.28 0.27 0.25 0.21 0.17 0.14 0.11 0.07 0.05 0.03 0.02 0.01 0.01 0.01 0.01 0.01 0.01 0.00 0.00 0.00 0.00 0.00 0.00 0.00 0.00 0.00 0.00 0.00 0.00 0.00
MSLP
1013.53 1013.23 1013.00 1012.91 1012.99 1013.21 1013.54 1013.91 1014.25 1014.53 1014.73 1014.87 1014.98 1015.11 1015.30 1015.54 1015.84 1016.16 1016.47 1016.74 1016.95 1017.12 1017.24 1017.36 1017.48 1017.62 1017.78 1017.95 1018.09 1018.20 1018.27 1018.30 1018.32 1018.33 1018.37 1018.45 1018.56 1018.70 1018.85 1018.98 1019.10 1019.20 1019.27
1013.20 1013.02 1012.91 1012.91 1013.05 1013.31 1013.64 1013.99 1014.32 1014.59 1014.81 1014.98 1015.16 1015.35 1015.60 1015.89 1016.21 1016.53 1016.82 1017.06 1017.24 1017.36 1017.47 1017.56 1017.68 1017.81 1017.96 1018.11 1018.24 1018.34 1018.40 1018.44 1018.46 1018.49 1018.55 1018.65 1018.77 1018.92 1019.05 1019.18 1019.28 1019.36 1019.42
1012.75 1012.69 1012.69 1012.79 1013.00 1013.30 1013.66 1014.02 1014.35 1014.63 1014.86 1015.07 1015.29 1015.53 1015.81 1016.13 1016.46 1016.77 1017.03 1017.24 1017.38 1017.48 1017.57 1017.65 1017.76 1017.88 1018.03 1018.16 1018.28 1018.38 1018.44 1018.48 1018.53 1018.59 1018.68 1018.81 1018.95 1019.10 1019.24 1019.35 1019.44 1019.50 1019.56
1012.28 1012.32 1012.43 1012.62 1012.91 1013.27 1013.66 1014.03 1014.37 1014.66 1014.91 1015.14 1015.38 1015.64 1015.94 1016.26 1016.57 1016.86 1017.09 1017.27 1017.39 1017.48 1017.55 1017.64 1017.74 1017.87 1018.01 1018.15 1018.27 1018.36 1018.43 1018.50 1018.57 1018.67 1018.80 1018.95 1019.11 1019.27 1019.40 1019.51 1019.60 1019.66 1019.72
1011.90 1012.03 1012.23 1012.51 1012.86 1013.26 1013.68 1014.06 1014.40 1014.69 1014.95 1015.18 1015.43 1015.70 1015.99 1016.29 1016.58 1016.84 1017.04 1017.19 1017.30 1017.38 1017.46 1017.56 1017.68 1017.83 1017.97 1018.11 1018.23 1018.33 1018.42 1018.51 1018.61 1018.74 1018.90 1019.08 1019.26 1019.42 1019.56 1019.67 1019.74 1019.81 1019.88
1011.71 1011.91 1012.16 1012.50 1012.90 1013.33 1013.75 1014.14 1014.47 1014.74 1014.99 1015.22 1015.46 1015.72 1015.99 1016.27 1016.53 1016.76 1016.94 1017.07 1017.17 1017.26 1017.36 1017.48 1017.63 1017.78 1017.94 1018.09 1018.22 1018.33 1018.43 1018.54 1018.66 1018.82 1019.00 1019.19 1019.38 1019.55 1019.68 1019.78 1019.86 1019.93 1020.02
1011.73 1011.97 1012.27 1012.64 1013.05 1013.48 1013.88 1014.24 1014.55 1014.80 1015.02 1015.24 1015.47 1015.72 1015.99 1016.25 1016.49 1016.70 1016.85 1016.98 1017.08 1017.18 1017.29 1017.44 1017.60 1017.77 1017.94 1018.09 1018.22 1018.33 1018.44 1018.56 1018.70 1018.87 1019.06 1019.25 1019.44 1019.61 1019.73 1019.83 1019.91 1019.99 1020.09
1011.93 1012.20 1012.52 1012.89 1013.29 1013.69 1014.06 1014.37 1014.63 1014.85 1015.05 1015.26 1015.49 1015.75 1016.01 1016.27 1016.50 1016.69 1016.84 1016.96 1017.05 1017.16 1017.29 1017.44 1017.61 1017.79 1017.96 1018.10 1018.23 1018.33 1018.43 1018.55 1018.68 1018.85 1019.04 1019.23 1019.42 1019.57 1019.69 1019.79 1019.88 1019.96 1020.08
1012.21 1012.50 1012.82 1013.19 1013.56 1013.91 1014.21 1014.47 1014.68 1014.86 1015.05 1015.26 1015.51 1015.78 1016.07 1016.34 1016.58 1016.77 1016.92 1017.02 1017.11 1017.21 1017.33 1017.48 1017.64 1017.81 1017.96 1018.09 1018.20 1018.28 1018.37 1018.47 1018.59 1018.75 1018.92 1019.11 1019.28 1019.44 1019.56 1019.66 1019.75 1019.85 1019.97
1012.45 1012.76 1013.10 1013.45 1013.78 1014.08 1014.32 1014.51 1014.67 1014.83 1015.01 1015.23 1015.51 1015.82 1016.15 1016.45 1016.71 1016.91 1017.05 1017.15 1017.22 1017.30 1017.40 1017.52 1017.66 1017.81 1017.93 1018.04 1018.12 1018.18 1018.24 1018.31 1018.42 1018.56 1018.73 1018.91 1019.08 1019.23 1019.36 1019.47 1019.57 1019.68 1019.82
1012.57 1012.92 1013.28 1013.62 1013.92 1014.16 1014.34 1014.48 1014.59 1014.73 1014.91 1015.17 1015.48 1015.85 1016.22 1016.57 1016.85 1017.07 1017.21 1017.29 1017.34 1017.40 1017.46 1017.55 1017.66 1017.77 1017.86 1017.94 1017.99 1018.02 1018.06 1018.12 1018.21 1018.34 1018.50 1018.67 1018.85 1019.01 1019.16 1019.28 1019.40 1019.52 1019.67
1012.51 1012.92 1013.31 1013.65 1013.94 1014.14 1014.27 1014.36 1014.45 1014.57 1014.77 1015.05 1015.42 1015.83 1016.25 1016.64 1016.96 1017.18 1017.32 1017.40 1017.43 1017.46 1017.49 1017.55 1017.63 1017.71 1017.78 1017.83 1017.85 1017.87 1017.89 1017.94 1018.02 1018.14 1018.30 1018.48 1018.68 1018.86 1019.02 1019.17 1019.31 1019.44 1019.58
1012.28 1012.75 1013.19 1013.56 1013.84 1014.03 1014.13 1014.20 1014.27 1014.39 1014.60 1014.91 1015.31 1015.76 1016.22 1016.63 1016.97 1017.21 1017.36 1017.43 1017.46 1017.47 1017.49 1017.53 1017.59 1017.66 1017.71 1017.75 1017.77 1017.78 1017.80 1017.84 1017.92 1018.04 1018.21 1018.41 1018.62 1018.82 1019.01 1019.18 1019.33 1019.47 1019.61
1011.90 1012.44 1012.94 1013.35 1013.65 1013.84 1013.95 1014.01 1014.08 1014.20 1014.42 1014.75 1015.16 1015.63 1016.10 1016.53 1016.89 1017.14 1017.30 1017.38 1017.42 1017.44 1017.47 1017.52 1017.59 1017.66 1017.72 1017.76 1017.79 1017.81 1017.83 1017.88 1017.96 1018.10 1018.28 1018.48 1018.71 1018.93 1019.13 1019.31 1019.47 1019.61 1019.74
1011.43 1012.04 1012.60 1013.05 1013.39 1013.61 1013.74 1013.82 1013.91 1014.05 1014.28 1014.60 1015.01 1015.47 1015.93 1016.36 1016.71 1016.97 1017.15 1017.26 1017.34 1017.40 1017.47 1017.55 1017.65 1017.75 1017.84 1017.90 1017.95 1017.98 1018.02 1018.08 1018.17 1018.31 1018.49 1018.70 1018.93 1019.16 1019.36 1019.55 1019.70 1019.83 1019.95
1010.90 1011.57 1012.18 1012.69 1013.08 1013.35 1013.53 1013.66 1013.78 1013.94 1014.18 1014.49 1014.88 1015.31 1015.74 1016.14 1016.48 1016.75 1016.96 1017.12 1017.25 1017.37 1017.51 1017.65 1017.81 1017.95 1018.08 1018.18 1018.25 1018.30 1018.35 1018.42 1018.52 1018.65 1018.82 1019.02 1019.24 1019.45 1019.64 1019.80 1019.94 1020.05 1020.14
1010.37 1011.06 1011.71 1012.27 1012.72 1013.06 1013.31 1013.51 1013.69 1013.89 1014.14 1014.45 1014.80 1015.18 1015.56 1015.93 1016.25 1016.53 1016.77 1016.99 1017.19 1017.40 1017.61 1017.83 1018.05 1018.25 1018.41 1018.55 1018.64 1018.71 1018.77 1018.84 1018.93 1019.05 1019.20 1019.36 1019.54 1019.72 1019.87 1020.00 1020.11 1020.19 1020.25
1009.84 1010.54 1011.20 1011.79 1012.30 1012.72 1013.07 1013.36 1013.63 1013.89 1014.17 1014.47 1014.79 1015.13 1015.46 1015.78 1016.08 1016.37 1016.65 1016.92 1017.20 1017.49 1017.78 1018.08 1018.35 1018.60 1018.80 1018.96 1019.07 1019.15 1019.21 1019.27 1019.34 1019.43 1019.54 1019.66 1019.78 1019.90 1020.00 1020.08 1020.14 1020.19 1020.22
1009.36 1010.01 1010.66 1011.26 1011.83 1012.34 1012.79 1013.20 1013.58 1013.92 1014.25 1014.57 1014.87 1015.16 1015.45 1015.73 1016.02 1016.31 1016.62 1016.94 1017.29 1017.65 1018.01 1018.36 1018.68 1018.96 1019.18 1019.35 1019.47 1019.54 1019.60 1019.65 1019.69 1019.75 1019.81 1019.87 1019.93 1019.98 1020.01 1020.03 1020.04 1020.05 1020.06
1008.96 1009.53 1010.12 1010.73 1011.33 1011.92 1012.49 1013.03 1013.52 1013.97 1014.37 1014.72 1015.02 1015.30 1015.55 1015.81 1016.08 1016.37 1016.70 1017.07 1017.47 1017.88 1018.28 1018.66 1019.01 1019.29 1019.52 1019.68 1019.80 1019.88 1019.92 1019.96 1019.98 1020.00 1020.01 1020.02 1020.01 1019.98 1019.94 1019.89 1019.85 1019.81 1019.80
1008.71 1009.16 1009.66 1010.23 1010.85 1011.50 1012.18 1012.84 1013.47 1014.03 1014.52 1014.92 1015.25 1015.52 1015.76 1016.00 1016.26 1016.56 1016.91 1017.30 1017.72 1018.15 1018.58 1018.96 1019.30 1019.58 1019.80 1019.96 1020.07 1020.14 1020.19 1020.22 1020.24 1020.23 1020.20 1020.15 1020.07 1019.98 1019.87 1019.76 1019.66 1019.59 1019.55
1008.66 1008.96 1009.35 1009.85 1010.46 1011.15 1011.91 1012.68 1013.43 1014.10 1014.68 1015.14 1015.51 1015.80 1016.05 1016.29 1016.55 1016.86 1017.21 1017.61 1018.04 1018.47 1018.88 1019.26 1019.57 1019.83 1020.03 1020.18 1020.29 1020.38 1020.44 1020.48 1020.50 1020.49 1020.44 1020.35 1020.22 1020.06 1019.89 1019.72 1019.57 1019.46 1019.39
1008.88 1009.01 1009.27 1009.67 1010.24 1010.94 1011.75 1012.59 1013.43 1014.19 1014.85 1015.39 1015.81 1016.13 1016.40 1016.66 1016.93 1017.24 1017.59 1017.99 1018.40 1018.82 1019.20 1019.54 1019.83 1020.06 1020.25 1020.40 1020.52 1020.63 1020.72 1020.79 1020.84 1020.83 1020.78 1020.67 1020.51 1020.31 1020.09 1019.87 1019.67 1019.51 1019.41
1009.39 1009.36 1009.47 1009.76 1010.26 1010.94 1011.75 1012.63 1013.52 1014.34 1015.06 1015.65 1016.12 1016.49 1016.79 1017.07 1017.35 1017.67 1018.03 1018.41 1018.81 1019.19 1019.54 1019.85 1020.10 1020.31 1020.49 1020.64 1020.79 1020.94 1021.07 1021.19 1021.27 1021.30 1021.26 1021.15 1020.98 1020.75 1020.49 1020.22 1019.98 1019.77 1019.63
1010.17 1009.99 1009.96 1010.15 1010.56 1011.18 1011.96 1012.84 1013.73 1014.58 1015.33 1015.95 1016.46 1016.86 1017.19 1017.49 1017.80 1018.13 1018.49 1018.87 1019.24 1019.60 1019.91 1020.18 1020.41 1020.60 1020.78 1020.95 1021.13 1021.31 1021.50 1021.66 1021.79 1021.86 1021.85 1021.75 1021.58 1021.33 1021.05 1020.75 1020.46 1020.21 1020.01
1011.16 1010.87 1010.74 1010.84 1011.16 1011.70 1012.42 1013.24 1014.11 1014.94 1015.68 1016.31 1016.83 1017.26 1017.62 1017.95 1018.28 1018.62 1018.98 1019.35 1019.71 1020.04 1020.32 1020.57 1020.77 1020.96 1021.13 1021.32 1021.52 1021.74 1021.96 1022.17 1022.34 1022.45 1022.47 1022.39 1022.23 1021.98 1021.69 1021.36 1021.04 1020.74 1020.47
Thickness
5795 5797 5795 5795 5793 5792 5790 5787 5785 5783 5781 5780 5778 5776 5775 5773 5771 5769 5767 5765 5763 5761 5759 5757 5755 5753 5752 5750 5749 5748 5747 5746 5745 5744 5743 5742 5741 5740 5739 5737 5736 5735 5733
5801 5797 5795 5794 5792 5790 5788 5785 5783 5781 5779 5777 5775 5774 5772 5770 5768 5766 5764 5762 5760 5758 5755 5754 5752 5750 5749 5747 5746 5745 5744 5742 5742 5741 5740 5739 5738 5737 5736 5734 5732 5730 5729
5801 5797 5794 5793 5791 5789 5786 5784 5781 5779 5777 5774 5772 5771 5769 5767 5766 5763 5761 5759 5757 5755 5753 5751 5749 5748 5746 5745 5743 5742 5741 5739 5738 5737 5736 5735 5734 5733 5732 5731 5729 5727 5726
5801 5796 5793 5792 5790 5787 5785 5782 5780 5777 5775 5772 5770 5768 5767 5765 5763 5761 5759 5757 5755 5753 5751 5749 5747 5746 5744 5743 5741 5739 5738 5737 5736 5735 5733 5732 5731 5730 5729 5727 5726 5724 5723
5799 5795 5792 5790 5789 5786 5784 5781 5778 5776 5774 5771 5769 5767 5765 5763 5761 5759 5757 5755 5753 5751 5749 5747 5745 5744 5742 5740 5739 5738 5736 5735 5734 5733 5732 5730 5729 5727 5726 5725 5723 5721 5720
5797 5794 5791 5789 5788 5785 5783 5780 5778 5775 5773 5770 5768 5766 5764 5761 5759 5757 5755 5753 5751 5749 5748 5746 5743 5742 5740 5738 5737 5736 5735 5734 5733 5731 5730 5729 5727 5725 5724 5723 5721 5719 5717
5795 5792 5790 5788 5786 5784 5782 5780 5777 5775 5772 5770 5767 5765 5762 5760 5758 5755 5753 5751 5750 5748 5746 5744 5742 5740 5738 5736 5735 5734 5733 5732 5731 5730 5728 5727 5725 5724 5722 5721 5719 5717 5715
5794 5790 5788 5786 5785 5783 5782 5779 5777 5774 5772 5769 5767 5764 5761 5759 5756 5754 5752 5750 5748 5746 5745 5743 5741 5739 5737 5735 5733 5732 5731 5729 5729 5728 5727 5725 5724 5722 5720 5718 5717 5715 5713
5793 5790 5787 5785 5784 5782 5780 5778 5776 5774 5771 5768 5766 5763 5760 5758 5755 5753 5751 5749 5747 5745 5743 5741 5739 5737 5734 5733 5731 5730 5728 5727 5727 5726 5724 5723 5722 5719 5717 5715 5714 5712 5711
5790 5788 5786 5784 5783 5781 5779 5777 5775 5773 5770 5768 5765 5762 5759 5757 5755 5753 5750 5748 5746 5743 5741 5739 5737 5734 5732 5730 5729 5728 5726 5725 5724 5724 5722 5721 5719 5717 5715 5713 5711 5710 5708
5787 5786 5785 5784 5782 5780 5778 5776 5774 5771 5769 5766 5764 5761 5759 5756 5754 5751 5749 5747 5744 5742 5739 5737 5735 5732 5730 5728 5727 5726 5725 5723 5722 5721 5720 5718 5716 5714 5712 5710 5708 5707 5705
5785 5785 5785 5783 5781 5779 5778 5775 5772 5770 5768 5765 5763 5760 5758 5755 5753 5750 5748 5746 5743 5740 5737 5735 5732 5730 5728 5726 5725 5724 5723 5721 5720 5718 5716 5714 5711 5709 5707 5705 5704 5703 5701
5790 5788 5786 5784 5782 5780 5778 5774 5771 5769 5766 5764 5762 5759 5757 5754 5751 5749 5746 5743 5740 5737 5735 5732 5729 5727 5725 5723 5722 5721 5720 5718 5717 5715 5713 5710 5707 5705 5702 5700 5699 5698 5697
5791 5789 5788 5786 5783 5781 5779 5774 5771 5769 5766 5763 5761 5759 5756 5753 5750 5747 5744 5741 5738 5735 5732 5729 5726 5723 5721 5720 5718 5717 5716 5714 5713 5711 5709 5705 5702 5699 5697 5695 5694 5693 5692
5792 5791 5789 5788 5786 5783 5779 5775 5772 5769 5767 5764 5762 5758 5755 5752 5749 5746 5742 5739 5735 5732 5729 5725 5722 5719 5717 5715 5714 5713 5711 5709 5707 5705 5703 5700 5697 5695 5693 5690 5688 5687 5686
5795 5792 5790 5788 5787 5784 5780 5776 5774 5771 5768 5764 5761 5758 5755 5752 5749 5745 5741 5737 5733 5729 5726 5722 5719 5715 5712 5710 5708 5707 5705 5703 5701 5699 5696 5694 5691 5689 5687 5684 5682 5681 5679
5801 5797 5792 5789 5787 5784 5780 5777 5774 5770 5766 5763 5760 5757 5754 5751 5747 5743 5739 5734 5731 5727 5723 5719 5716 5712 5708 5705 5702 5700 5698 5697 5695 5693 5691 5689 5686 5683 5681 5679 5676 5674 5673
5803 5798 5795 5791 5787 5784 5781 5777 5774 5769 5765 5761 5758 5755 5751 5748 5744 5740 5735 5731 5728 5724 5720 5716 5712 5708 5703 5700 5697 5694 5692 5690 5688 5686 5684 5682 5680 5677 5674 5672 5670 5668 5666
5803 5798 5794 5790 5785 5782 5779 5775 5771 5767 5763 5759 5755 5751 5747 5743 5739 5735 5730 5726 5722 5718 5715 5711 5706 5703 5698 5694 5692 5689 5686 5683 5682 5680 5677 5675 5673 5670 5668 5665 5663 5661 5659
5802 5797 5792 5787 5782 5777 5774 5769 5765 5761 5757 5754 5750 5746 5742 5739 5734 5730 5725 5720 5716 5712 5708 5705 5700 5696 5692 5689 5687 5683 5680 5677 5675 5673 5670 5668 5665 5663 5660 5658 5656 5654 5652
5792 5789 5785 5780 5777 5772 5767 5762 5756 5751 5747 5744 5741 5738 5735 5731 5727 5723 5718 5713 5709 5705 5700 5697 5693 5688 5683 5681 5678 5675 5673 5671 5668 5666 5663 5660 5657 5655 5653 5650 5648 5646 5644
5783 5782 5779 5775 5771 5768 5764 5758 5751 5744 5738 5734 5731 5727 5724 5721 5717 5713 5709 5705 5701 5697 5692 5689 5686 5680 5675 5672 5669 5665 5661 5660 5659 5658 5655 5652 5649 5646 5644 5642 5639 5637 5634
5777 5776 5774 5771 5766 5761 5756 5748 5741 5734 5728 5722 5718 5715 5711 5709 5706 5703 5699 5695 5691 5688 5683 5680 5677 5673 5667 5663 5661 5657 5652 5649 5646 5646 5644 5641 5639 5636 5632 5631 5628 5626 5623
5771 5771 5767 5763 5758 5752 5747 5741 5733 5725 5718 5711 5706 5702 5698 5696 5694 5690 5686 5683 5679 5676 5672 5669 5666 5664 5660 5654 5650 5647 5644 5640 5635 5632 5631 5629 5627 5624 5620 5618 5616 5614 5611
5758 5757 5753 5749 5745 5742 5738 5732 5725 5717 5710 5701 5694 5689 5685 5682 5680 5677 5674 5671 5667 5663 5660 5657 5654 5651 5648 5643 5638 5634 5631 5626 5623 5619 5616 5613 5612 5610 5607 5604 5601 5599 5596
5742 5741 5739 5734 5730 5727 5723 5720 5714 5706 5698 5690 5683 5677 5671 5668 5666 5663 5661 5657 5653 5650 5647 5643 5641 5638 5634 5630 5625 5621 5617 5613 5608 5604 5600 5597 5594 5593 5591 5588 5585 5581 5578